Theta_e
340 343 343 349 351 351 352 352 352 352 351 352 351 350 350 349 349 349 349 349 349 349 349 349 349 349 349 349 349 349 349 348 348 348 348 348 348 348 349 349 349 349 349 350 350 350 350 350 349 351 349 349 347 346 345 344 343 343 343 343 343 343 344 345 345 345 345 349 351 352 350 349 350 350 350 350 350 351 352 354 351 349 349 351 352
338 343 343 347 350 351 351 352 352 352 352 352 352 350 350 349 349 349 349 349 349 349 349 349 349 349 349 348 348 349 348 349 349 348 348 347 348 347 348 348 348 348 348 349 349 350 349 349 350 349 348 347 346 344 343 342 341 340 341 341 342 342 342 343 344 344 345 346 349 351 351 350 349 349 349 349 350 350 350 351 350 348 347 351 352
341 342 343 346 349 350 351 352 352 352 352 352 351 350 350 349 349 350 349 349 349 349 349 349 349 348 348 348 348 348 348 348 348 348 348 348 348 347 348 348 348 348 347 348 348 349 348 348 348 347 345 344 343 342 341 340 338 338 338 339 340 340 341 342 343 343 343 344 345 349 347 349 349 349 349 348 349 349 348 348 349 349 348 351 351
342 342 344 346 346 349 352 352 352 352 352 351 351 350 349 349 349 349 349 350 349 349 349 349 349 348 348 348 349 348 348 348 348 347 348 348 348 347 347 348 347 347 347 347 348 348 347 347 346 345 343 341 341 340 338 338 337 336 336 337 338 338 339 340 341 342 343 344 343 344 345 346 346 349 349 348 348 349 347 347 348 348 349 349 350
342 343 344 345 346 347 351 352 352 352 352 351 351 350 350 349 349 349 349 349 349 349 349 349 349 348 349 348 348 348 348 348 348 348 347 347 347 347 347 347 347 347 346 346 347 346 346 345 343 342 340 338 337 336 336 335 335 334 334 333 335 337 337 338 339 340 341 343 343 342 339 345 345 349 348 349 348 347 346 346 346 346 346 347 349
338 344 344 345 346 346 348 351 352 352 351 351 351 350 349 349 349 349 349 349 349 349 349 349 349 349 349 347 348 348 348 348 347 347 346 346 347 347 346 346 346 346 346 345 346 345 345 343 341 340 338 336 335 334 334 334 333 332 332 332 332 334 335 336 337 337 339 341 339 337 340 343 345 346 349 348 348 346 346 346 346 346 346 346 347
339 344 343 344 345 346 346 351 352 352 351 351 351 350 349 349 349 349 349 349 349 349 349 349 349 349 348 348 347 347 347 347 346 345 344 344 344 345 345 346 346 346 346 345 345 345 343 340 339 338 336 334 334 333 332 331 330 331 330 330 331 333 334 335 335 336 338 336 330 335 337 344 344 345 348 348 349 348 347 347 347 347 348 346 347
337 344 342 343 345 345 345 351 352 351 351 352 351 350 349 349 349 349 348 349 349 349 349 349 348 348 348 348 348 347 347 346 344 343 343 342 343 343 342 342 344 344 343 343 343 342 340 339 337 336 335 333 333 332 331 330 330 330 330 329 329 330 332 332 334 334 336 331 333 336 338 342 343 344 347 348 347 348 348 348 348 348 347 347 346
337 342 342 343 344 343 345 349 352 351 352 351 351 350 349 349 350 349 349 348 349 349 349 349 349 348 348 348 347 346 346 344 343 342 340 340 342 339 340 340 339 341 341 341 341 340 339 337 336 335 334 332 331 330 330 330 329 329 329 328 327 328 330 331 332 335 328 327 333 335 340 342 342 342 345 347 347 346 345 345 345 346 346 345 345
336 339 342 343 344 342 344 348 352 351 351 352 351 350 350 349 350 350 349 348 348 349 348 348 348 348 348 347 347 346 345 344 342 341 339 339 337 338 337 337 337 339 340 338 336 337 337 335 335 334 333 331 330 329 329 328 327 327 326 327 327 328 329 330 333 331 328 330 332 333 337 343 340 340 343 344 345 344 342 342 342 341 342 343 344
335 337 340 342 344 341 346 349 350 350 351 351 351 351 349 349 350 349 349 348 348 348 348 348 348 348 348 347 347 345 344 343 341 340 340 338 336 337 337 337 336 336 337 337 335 334 333 334 332 332 332 330 328 328 327 326 325 324 324 325 326 327 328 330 332 325 329 330 331 330 337 343 338 337 343 342 342 341 340 340 342 342 341 341 341
334 335 338 340 340 341 345 347 350 351 350 351 351 350 350 350 350 349 350 348 348 348 348 348 348 348 347 347 346 345 343 342 341 338 338 337 336 335 335 335 336 335 334 335 334 333 332 333 332 331 329 327 326 325 325 324 323 322 322 323 324 325 327 330 327 325 327 328 329 330 332 334 335 338 341 341 340 341 339 339 339 340 339 339 339
333 334 338 342 340 340 343 347 348 350 350 351 351 351 350 350 349 348 349 349 348 348 348 349 348 347 347 346 345 344 343 341 340 338 337 336 336 335 334 335 335 334 333 332 332 332 332 331 331 329 327 326 325 324 324 323 321 322 322 322 324 324 326 328 324 324 325 327 329 329 330 329 331 338 338 338 338 338 338 338 338 338 338 338 338
331 333 339 342 340 338 341 344 346 349 349 351 351 351 350 349 349 349 349 348 349 349 348 348 347 347 347 345 344 343 342 341 339 338 337 335 335 334 334 334 332 332 331 331 331 330 330 330 329 328 326 324 323 322 321 322 321 321 321 322 322 323 324 324 326 321 323 324 327 327 327 328 329 335 335 335 335 335 335 336 336 336 336 336 336
329 333 337 343 340 339 337 341 343 345 347 349 349 349 350 349 349 349 349 349 349 349 348 348 348 347 347 346 345 344 341 341 339 339 336 335 334 333 332 332 332 331 331 331 330 330 330 329 328 326 325 323 322 322 321 321 320 319 319 320 320 321 323 316 321 320 323 325 325 325 325 326 333 333 333 333 333 333 333 333 334 334 334 334 334
333 334 337 340 340 340 338 337 339 341 342 345 346 346 348 348 348 348 348 348 348 348 348 347 347 346 346 345 344 344 341 340 340 338 335 334 333 333 332 332 332 331 330 330 329 329 329 328 327 325 323 323 322 321 320 318 318 318 318 318 318 320 320 316 316 317 320 321 323 325 324 326 331 331 331 331 331 331 332 332 332 332 333 333 333
333 334 335 337 340 340 339 338 337 335 336 339 341 343 344 346 347 347 347 347 347 347 346 346 345 345 344 344 343 343 341 342 338 335 334 333 333 332 332 332 331 331 330 330 329 328 328 327 325 323 323 322 321 320 319 317 316 315 316 316 317 318 319 317 317 317 318 321 324 323 323 325 328 330 330 330 329 329 330 330 330 331 330 331 330
331 334 333 335 336 339 340 339 339 338 341 337 335 338 341 343 344 344 344 344 345 345 345 343 343 342 341 338 336 336 337 339 336 336 334 334 333 332 332 331 331 331 330 330 329 329 328 326 324 323 322 322 320 319 318 316 315 314 315 315 315 317 317 315 314 315 316 321 321 321 321 330 328 328 328 329 328 329 329 328 329 329 329 329 329
329 333 333 333 335 336 339 339 339 341 343 342 341 338 335 338 340 341 340 341 341 340 340 339 338 338 337 333 331 330 330 331 332 333 333 331 331 329 332 331 331 331 330 329 329 328 327 325 324 323 322 321 319 317 316 314 312 313 312 312 313 313 314 313 311 313 314 317 318 318 320 329 327 327 328 328 329 328 327 328 328 327 327 328 328
327 330 331 332 333 334 336 338 340 340 341 341 341 340 333 332 336 338 338 338 338 337 336 336 331 329 328 327 325 324 324 324 324 326 328 330 328 325 328 330 330 330 329 329 328 327 326 325 324 323 321 319 318 315 313 311 310 310 309 309 312 311 306 307 308 309 312 316 317 316 324 327 326 328 327 327 327 327 327 327 327 327 327 327 327
329 328 329 330 331 332 333 336 338 340 341 341 341 340 337 330 331 331 331 333 333 332 332 328 323 321 321 320 320 325 324 322 323 323 321 324 321 322 326 330 329 330 329 328 327 326 326 325 323 322 320 318 315 313 311 310 308 307 307 309 310 303 303 304 305 309 312 313 314 316 324 326 326 326 326 326 327 327 326 326 325 327 326 326 327
324 325 328 328 329 331 332 333 335 338 339 340 340 340 338 332 335 334 333 331 328 325 326 327 323 323 321 321 323 324 324 324 322 323 322 322 320 320 321 327 330 330 329 327 326 325 325 324 323 321 319 316 311 302 303 309 307 306 306 311 303 300 300 301 303 307 310 312 312 318 324 325 325 326 326 326 325 325 325 326 325 325 325 326 326
322 324 326 328 328 330 332 332 332 335 337 338 338 338 337 334 335 334 333 329 328 326 327 326 325 325 322 323 322 323 323 323 323 322 322 320 321 319 321 325 329 328 327 328 326 325 325 324 323 320 317 312 306 299 298 297 296 304 306 301 299 299 300 300 302 306 308 310 309 319 323 324 324 325 324 324 324 325 325 325 325 324 324 324 324
320 324 324 327 327 328 330 332 331 332 334 335 336 335 334 334 334 334 332 330 329 327 328 327 326 325 325 323 322 322 322 322 321 319 320 320 320 317 320 321 323 323 322 323 325 325 324 323 322 319 314 308 303 300 298 297 294 295 298 300 299 301 301 300 301 304 306 310 309 318 321 324 324 324 325 324 325 325 325 325 324 324 323 324 324
319 324 324 326 327 328 329 331 331 331 331 332 333 333 332 332 333 333 332 329 329 328 328 327 326 325 325 324 322 320 322 320 319 318 319 319 317 317 317 318 317 316 318 315 316 317 316 312 311 308 302 301 301 300 300 298 296 298 299 298 299 299 299 299 300 302 305 305 307 316 319 323 324 324 324 324 324 324 324 324 323 323 323 323 323
320 321 323 325 326 328 329 330 331 331 331 331 331 332 331 330 330 331 331 329 328 327 327 327 326 325 324 324 322 322 320 320 318 318 318 318 317 316 317 316 315 314 316 314 312 313 310 307 306 303 300 299 300 299 300 300 299 297 297 298 298 298 298 298 299 300 305 304 305 315 317 320 323 323 323 324 324 324 324 324 324 323 322 323 323
317 319 323 324 327 328 328 329 329 330 330 331 330 330 329 329 329 328 327 327 327 327 326 326 325 325 323 323 321 319 319 318 318 317 317 317 316 316 316 316 315 313 313 313 311 311 308 305 301 300 298 298 299 299 300 300 298 298 298 298 298 297 297 297 297 299 302 303 308 313 315 319 323 322 322 323 323 323 323 323 323 322 322 322 323
312 319 321 323 325 327 328 329 329 329 330 331 330 330 329 330 329 326 326 325 324 324 325 325 324 323 323 322 320 319 318 318 317 317 316 316 315 315 316 314 314 313 312 311 310 308 306 301 298 297 298 299 299 299 299 299 299 298 298 298 298 296 297 296 296 297 301 303 303 308 313 317 321 324 321 323 323 322 323 322 322 321 321 322 321
310 316 320 321 324 326 327 328 329 329 330 331 329 329 329 329 328 326 325 323 324 323 324 323 323 322 323 321 320 319 318 318 315 317 316 314 314 314 314 313 313 312 311 309 310 307 304 298 297 298 298 298 297 297 297 297 297 297 298 297 297 296 296 297 296 297 298 301 302 304 312 315 319 322 321 322 322 321 322 321 321 321 320 320 321
311 312 318 319 321 325 326 327 328 329 329 330 329 328 327 327 326 326 325 323 323 323 323 322 322 322 322 321 320 320 318 318 314 314 315 312 312 314 313 312 313 311 309 309 307 304 300 296 297 298 298 297 297 297 296 295 295 296 297 296 296 296 296 296 296 296 296 301 301 300 309 312 315 320 320 320 320 321 322 321 320 320 319 320 320
311 310 313 318 318 322 324 325 327 326 328 328 327 327 327 326 325 326 325 323 323 323 322 322 322 321 321 321 320 319 317 317 313 313 312 311 312 313 312 312 311 310 309 306 304 301 297 297 298 296 297 296 295 295 295 296 295 296 296 296 295 295 295 295 296 296 296 298 301 300 303 309 313 315 319 319 319 320 320 320 320 319 320 319 319
310 311 311 314 317 320 322 323 325 325 326 326 325 326 326 326 325 325 325 324 323 323 322 322 320 320 320 320 319 319 316 316 313 313 312 311 312 313 311 310 309 306 307 302 300 299 297 297 297 296 296 295 295 294 296 295 294 295 295 295 295 295 294 295 295 296 296 297 300 301 301 303 308 311 314 318 319 319 319 319 319 318 318 319 319
311 312 312 312 315 317 320 321 323 324 324 325 325 326 325 325 324 324 325 325 323 323 322 321 320 320 320 320 319 319 316 314 312 313 311 311 311 311 310 309 307 304 303 300 299 297 297 297 298 297 296 295 294 294 296 294 294 294 295 294 294 294 294 294 294 295 295 296 296 298 302 301 300 305 309 311 316 318 318 318 318 317 318 318 318
312 311 311 312 314 318 320 321 321 321 322 323 323 323 324 324 323 324 323 323 322 322 321 321 320 319 318 318 319 318 316 313 311 311 310 310 309 310 308 306 305 302 301 299 298 296 296 296 296 295 298 295 294 294 293 294 293 293 293 293 293 293 293 294 294 294 295 295 294 296 300 302 300 299 300 306 309 314 317 317 317 317 317 316 317
308 313 311 312 311 316 319 319 318 318 319 320 319 320 319 320 320 321 321 322 321 321 320 320 320 319 318 317 318 317 316 313 310 310 309 308 308 307 307 305 304 301 299 298 297 296 296 296 295 295 294 293 293 294 293 294 293 293 293 293 293 292 293 293 294 293 294 293 293 294 295 298 299 301 299 296 301 307 312 315 316 317 317 316 315
306 307 312 312 311 314 315 315 316 317 317 318 317 318 319 318 318 317 317 317 317 319 317 319 319 317 317 315 316 316 315 313 310 309 308 307 307 306 306 303 302 300 298 297 297 295 295 296 295 294 292 292 293 292 292 293 292 293 292 292 293 293 292 293 293 293 293 292 292 293 293 293 297 299 301 296 295 300 308 310 313 314 314 314 314
306 306 306 310 311 312 314 314 315 316 317 318 317 317 317 317 318 317 317 316 316 315 315 316 317 317 314 312 313 314 313 313 309 308 307 305 304 304 304 303 301 299 297 297 295 295 295 296 293 294 292 291 291 290 291 293 294 293 291 292 291 292 292 293 293 292 294 291 291 292 292 291 292 298 292 293 294 294 302 306 308 309 309 311 313
305 304 306 307 307 310 313 313 314 315 316 316 317 316 316 316 316 316 315 316 314 314 315 317 316 316 315 312 311 312 311 311 309 307 306 305 303 303 302 302 300 298 297 296 294 294 294 294 292 292 292 292 291 291 291 293 295 294 292 292 291 291 291 292 292 294 291 291 291 290 291 290 290 291 291 292 291 291 294 300 304 305 305 308 311
306 305 305 306 307 308 310 310 311 313 314 315 315 315 316 316 316 315 314 314 313 314 314 314 315 314 313 312 311 311 310 310 309 306 305 303 302 301 301 301 299 297 296 295 293 293 294 293 292 292 293 293 292 291 292 293 294 293 293 291 291 292 291 292 291 291 290 291 291 292 293 290 290 291 291 290 290 289 289 291 292 292 294 304 308
305 305 305 305 305 306 307 309 308 309 311 312 314 313 312 312 312 313 312 312 312 312 312 313 313 312 312 310 309 310 308 308 308 306 304 302 300 299 299 300 298 297 295 294 293 292 293 293 291 292 292 292 293 292 293 292 291 291 290 290 291 292 291 291 291 290 290 291 291 291 290 290 291 290 291 291 290 290 290 289 291 291 293 299 303
303 303 303 304 304 305 305 305 306 306 308 308 310 310 310 311 311 310 310 310 310 311 311 311 311 311 309 309 308 308 307 307 307 305 303 302 300 298 298 298 297 296 295 294 293 293 294 293 293 293 291 291 291 292 292 292 290 288 288 289 290 291 291 291 290 290 290 290 290 290 290 290 289 290 290 290 290 290 289 290 290 290 290 290 294
301 302 302 303 303 303 303 304 305 305 305 307 308 309 310 309 308 308 309 309 309 308 308 309 310 310 309 307 306 306 305 306 305 305 303 301 299 297 297 298 297 296 295 294 293 293 293 293 293 291 292 292 291 292 293 291 287 286 286 287 287 288 289 288 289 289 290 290 289 289 289 289 289 290 290 290 289 290 289 289 289 289 289 289 289
300 301 301 302 302 302 303 303 304 304 304 305 305 306 309 309 310 309 310 309 310 309 309 308 308 309 308 307 306 305 305 304 304 304 303 302 299 297 297 296 296 295 294 294 293 293 293 293 293 292 291 290 290 293 292 292 286 286 287 286 283 285 287 286 287 289 290 290 289 288 290 289 289 289 290 290 289 289 289 289 289 289 289 289 288
299 299 300 300 301 301 301 302 302 303 303 303 303 304 304 305 307 307 305 306 304 304 305 306 307 307 307 306 305 304 304 304 303 303 303 302 300 298 297 296 296 295 295 294 293 293 293 293 292 291 292 290 290 291 292 290 288 289 284 284 283 284 283 284 284 286 289 289 289 289 289 289 289 289 289 289 289 289 289 289 289 289 289 289 289
297 298 299 299 300 299 300 301 301 302 302 302 302 302 303 303 304 305 303 303 303 302 301 301 303 304 304 304 303 303 303 302 302 302 301 301 300 299 296 296 295 294 294 294 293 293 293 293 293 292 291 291 289 289 291 291 289 292 289 285 284 284 283 285 284 284 287 287 288 288 289 289 289 289 288 288 288 288 288 288 288 288 289 289 288
297 297 298 298 298 298 299 299 300 301 301 301 301 301 301 300 300 300 299 299 298 299 298 299 300 301 302 302 302 302 302 301 301 301 300 299 299 299 297 296 295 294 294 294 293 293 293 293 293 292 291 290 290 289 289 291 290 290 290 289 288 284 284 286 285 282 286 287 287 287 288 288 288 289 288 287 288 288 288 288 288 288 289 288 288
296 297 297 297 297 297 298 298 298 298 300 300 300 300 299 299 299 299 299 298 298 299 300 301 301 301 303 302 302 301 301 301 300 299 299 299 299 298 297 296 295 294 294 293 293 293 293 293 293 292 291 291 289 289 289 290 289 289 291 292 291 289 289 286 283 282 280 283 286 286 287 287 288 288 288 287 288 288 288 288 288 288 288 288 288
296 297 297 297 297 296 296 297 297 297 298 298 299 299 299 298 298 297 298 298 298 298 299 300 300 299 300 301 300 300 300 300 300 299 298 298 298 298 298 297 295 294 293 293 293 293 293 293 292 293 292 291 290 290 289 289 289 288 290 290 290 290 290 290 289 286 283 281 282 285 286 287 287 288 288 287 288 288 287 287 287 287 287 288 287
295 295 296 296 297 296 296 296 296 296 297 297 297 298 298 298 298 298 297 298 298 299 299 299 298 298 298 298 299 299 299 299 299 299 298 298 297 297 297 297 296 294 293 293 293 293 292 292 292 292 291 291 291 290 289 289 289 288 288 287 288 289 289 288 288 289 282 281 281 282 283 285 286 287 287 288 288 288 288 288 288 288 287 288 288
294 295 295 295 296 296 295 295 294 295 296 296 297 296 297 297 297 296 296 296 297 298 297 297 297 298 296 297 297 297 296 297 297 297 297 297 297 296 296 296 296 296 293 293 292 292 292 292 293 292 292 291 291 291 291 290 290 289 288 289 288 287 286 287 286 285 286 285 283 281 283 284 283 286 287 287 288 288 288 287 288 287 287 287 287
293 293 294 294 294 294 294 294 294 295 295 295 295 295 296 296 295 295 295 295 295 296 295 296 296 296 297 297 296 296 296 295 296 296 297 297 296 296 295 296 296 295 294 293 292 292 292 292 292 292 292 291 291 290 291 290 289 289 288 288 289 290 290 288 288 286 287 286 283 282 284 285 285 283 286 288 288 288 288 287 287 287 287 287 287
Wind_Speed
4 11 10 15 16 17 18 17 16 15 15 14 14 13 12 12 11 11 10 10 11 11 10 10 10 10 10 9 9 8 8 8 7 6 6 6 6 5 6 6 6 6 7 8 9 9 9 10 10 11 12 11 10 10 10 10 10 10 10 10 10 10 10 9 9 9 7 8 10 11 10 10 11 10 11 11 12 12 13 10 9 7 5 8 11
6 10 10 11 17 16 18 17 17 16 15 15 14 14 13 12 12 12 11 11 10 10 10 9 9 9 9 8 8 8 8 8 7 7 6 6 6 5 5 6 6 7 7 9 9 10 10 9 10 11 10 10 10 9 9 10 10 10 10 10 9 9 8 8 7 6 5 4 6 8 8 10 10 11 11 11 12 13 13 12 12 6 4 10 12
6 9 9 12 16 16 16 16 17 16 15 16 15 13 12 12 12 12 12 11 11 10 9 9 8 8 8 8 8 8 8 7 8 8 7 7 6 5 6 7 7 7 8 8 10 10 9 9 10 10 9 10 10 9 9 9 9 9 9 9 9 8 8 7 7 6 5 5 5 8 10 9 10 11 11 12 12 13 12 12 10 8 7 13 10
8 8 9 12 15 15 15 15 15 16 15 15 14 13 13 12 12 12 12 11 11 11 10 9 9 8 8 8 8 8 7 8 8 9 9 8 7 7 7 7 7 7 8 9 9 9 9 9 9 8 9 10 9 9 9 9 9 9 8 8 8 7 7 7 7 7 6 6 4 2 2 5 5 9 11 12 12 13 12 11 10 10 11 11 12
7 9 9 10 11 13 15 14 15 15 15 15 14 14 14 13 13 12 12 11 11 11 10 9 9 9 9 9 9 9 9 9 9 9 9 9 8 7 7 7 7 7 8 8 8 8 9 8 7 8 9 9 9 8 8 8 8 8 8 8 7 7 6 6 6 6 7 6 5 3 1 5 5 8 9 11 11 11 10 11 11 11 10 10 11
5 9 10 9 9 11 15 15 15 15 16 15 15 14 14 13 13 12 12 11 11 10 10 9 10 10 9 8 8 9 10 11 10 9 9 8 8 7 7 6 8 7 7 7 7 8 9 6 5 7 8 8 8 8 7 8 8 7 8 8 7 7 7 5 6 6 7 9 8 3 4 5 5 5 8 9 11 10 9 9 9 10 9 11 11
6 9 10 10 8 10 14 15 17 15 16 15 15 15 13 13 13 12 12 11 11 11 10 10 10 9 8 9 9 10 11 10 10 8 8 7 8 8 7 7 8 8 8 7 7 8 8 5 5 7 8 8 7 8 7 7 7 7 7 7 7 7 7 6 6 7 7 6 5 6 2 7 6 4 7 8 9 10 10 11 11 11 11 11 11
4 8 9 9 8 11 14 16 16 16 16 15 15 15 14 14 13 13 12 12 11 10 11 11 10 9 10 10 11 11 11 9 9 8 8 6 5 5 5 4 6 6 6 5 6 7 5 3 3 6 7 7 7 7 7 7 7 7 7 7 7 7 7 7 7 7 9 4 4 3 6 7 5 5 9 9 10 10 10 12 12 13 12 12 10
5 6 9 9 8 16 14 15 16 17 17 16 14 14 14 13 12 12 12 12 11 11 11 11 11 10 11 11 11 11 10 9 9 8 6 5 6 4 2 4 5 5 1 6 4 4 3 2 2 5 7 7 7 6 6 6 7 7 7 7 6 6 6 7 7 8 6 4 4 5 6 5 6 4 10 13 14 14 13 10 10 12 12 12 11
5 4 8 8 8 17 15 14 16 18 18 15 15 13 14 13 12 13 13 12 12 12 12 11 11 11 12 12 11 11 10 9 8 7 6 6 4 3 3 4 2 2 6 4 2 3 3 2 2 4 7 7 6 6 6 6 6 6 6 6 6 5 6 7 8 7 3 2 3 2 5 7 5 5 8 12 13 13 13 11 8 7 6 10 9
6 4 5 7 12 17 16 15 15 16 17 15 15 13 15 14 13 14 13 13 13 12 12 12 12 12 13 12 12 11 10 8 8 7 7 6 3 5 3 4 2 1 1 3 2 2 1 2 1 4 6 7 6 6 6 5 5 5 5 6 6 6 6 7 7 2 4 5 5 4 6 9 5 4 10 11 10 11 11 9 7 7 8 9 8
6 4 4 4 15 18 17 15 14 15 15 15 15 15 15 13 13 14 13 13 13 13 13 12 13 13 13 13 13 11 10 9 10 9 7 6 5 3 2 3 3 3 4 4 4 2 2 2 3 5 6 6 6 6 6 5 5 5 5 6 6 5 6 8 4 6 4 4 4 4 7 5 4 6 10 10 10 10 9 8 8 8 8 7 7
6 4 3 6 10 16 17 16 14 13 14 15 16 17 16 15 15 15 13 13 13 13 12 11 13 14 14 13 11 10 9 8 8 10 8 7 5 4 3 4 6 5 5 3 4 4 3 3 3 5 6 6 6 5 6 5 5 5 5 6 6 6 6 8 4 4 4 4 4 7 6 5 4 7 8 8 9 8 8 8 7 7 7 7 6
5 5 5 6 6 12 15 15 14 13 13 14 16 15 16 16 16 15 14 14 12 11 11 12 13 13 12 11 10 9 9 10 11 9 9 8 6 5 6 6 5 5 5 5 5 4 4 4 4 6 6 6 6 5 5 5 5 5 5 6 6 6 8 5 5 3 3 3 5 7 5 5 4 7 6 7 7 7 6 6 6 6 6 7 6
5 5 5 7 7 7 13 14 12 11 11 13 14 14 15 16 15 14 14 13 13 12 12 12 13 11 9 10 8 7 8 11 10 10 10 9 7 5 5 6 5 5 6 6 5 4 5 5 5 6 6 6 6 6 5 5 6 6 5 6 6 7 7 3 2 2 3 3 4 6 6 4 8 8 8 7 7 5 5 4 4 5 5 6 5
4 5 4 8 7 7 7 10 12 10 10 12 13 14 14 15 14 14 14 14 14 14 14 12 10 9 8 7 6 6 9 11 9 10 10 9 8 7 6 6 6 5 5 5 5 5 5 5 6 6 6 6 6 6 6 6 6 6 6 6 6 6 7 5 1 3 4 5 3 5 5 4 8 8 8 7 5 4 4 4 4 4 5 5 6
4 6 4 6 9 7 7 7 8 9 8 11 12 13 13 14 14 14 14 14 14 14 13 12 11 9 8 7 5 7 8 8 10 11 9 8 8 7 7 7 7 6 6 6 6 6 5 6 7 6 6 6 6 6 6 6 6 6 6 6 5 6 7 7 4 3 3 3 6 5 5 5 5 6 6 6 5 4 3 4 4 4 4 5 6
4 6 5 4 6 9 7 7 7 6 5 9 11 12 12 13 14 14 13 13 12 12 11 11 10 10 8 7 7 6 7 7 12 11 10 8 7 6 6 7 7 7 7 7 6 6 7 7 7 7 7 7 6 6 6 6 6 6 6 5 5 5 6 7 4 3 1 4 6 5 5 5 6 5 5 5 5 4 5 5 5 5 5 5 5
4 5 5 5 6 7 9 8 8 7 7 6 6 9 12 12 13 13 13 12 11 10 9 9 9 9 9 8 7 8 7 8 9 10 10 9 6 3 3 7 8 8 8 7 7 7 8 8 8 7 7 7 7 6 6 6 6 6 6 5 4 5 7 5 3 2 4 6 5 5 4 7 5 5 5 5 5 5 5 6 6 5 5 6 6
3 5 5 5 6 6 7 8 9 9 7 6 6 7 9 12 11 12 12 11 11 9 8 8 8 8 9 9 9 7 7 6 10 7 10 10 8 4 4 7 8 9 8 8 8 8 8 8 9 8 8 8 7 6 6 6 6 6 5 3 4 5 2 2 3 4 5 6 5 5 6 7 3 6 5 5 5 5 5 5 5 5 6 6 6
4 4 5 6 6 7 7 8 9 10 9 8 7 7 8 10 9 10 11 10 10 9 9 8 8 8 8 9 9 6 5 5 6 5 8 6 9 6 6 6 8 8 8 9 9 9 9 9 9 9 9 9 8 7 6 6 5 4 3 4 5 3 3 4 4 4 6 5 5 5 7 6 4 5 5 5 5 4 5 5 4 6 6 6 6
7 6 5 6 7 7 8 7 8 11 10 8 7 7 7 10 7 6 7 8 8 7 6 5 6 4 8 7 5 6 6 5 4 6 5 6 7 8 7 7 7 7 7 9 10 10 9 10 10 10 10 10 9 4 3 4 4 2 2 3 3 1 2 3 4 5 4 4 4 5 8 5 3 5 4 5 4 4 4 5 5 5 6 6 6
6 6 7 8 7 6 6 8 7 10 11 9 7 7 8 8 9 8 7 8 7 7 5 5 5 5 5 5 6 6 5 5 6 6 5 8 7 9 8 8 7 8 8 8 10 11 10 10 10 10 10 9 5 4 3 1 0 1 3 2 1 3 2 2 4 5 4 4 3 6 8 4 2 4 4 4 4 4 4 6 6 5 5 5 5
7 8 8 6 6 7 7 8 7 8 10 8 7 7 6 8 8 8 7 6 6 6 6 5 5 5 6 6 5 5 5 4 7 11 8 6 7 9 9 8 8 10 10 6 8 9 11 11 10 10 7 4 3 5 4 3 2 3 2 1 3 0 0 2 4 4 4 4 3 7 8 5 2 2 5 5 5 4 5 5 6 6 6 5 5
7 7 6 8 9 9 8 8 8 6 8 8 8 8 6 8 8 8 8 7 7 7 6 6 6 6 7 6 5 4 4 4 4 6 6 6 5 5 5 5 5 5 9 5 5 5 5 5 5 5 4 4 3 6 5 5 5 5 4 4 3 1 2 2 3 4 4 3 3 7 8 8 2 2 4 5 5 5 5 6 6 5 5 5 5
7 7 8 8 9 9 8 8 9 8 8 8 8 7 8 7 7 8 8 7 7 7 7 6 6 7 6 6 6 5 5 5 4 6 6 6 6 6 6 6 5 6 6 6 5 5 4 5 5 5 5 5 4 4 6 6 7 3 4 4 4 3 3 3 2 4 5 4 3 6 7 8 5 2 2 4 5 5 5 4 5 6 5 5 5
6 7 8 8 10 10 10 9 10 9 10 9 7 7 7 6 7 7 7 7 7 8 8 8 7 7 6 7 7 6 6 6 5 6 6 6 6 6 6 6 6 6 6 7 5 6 5 6 6 5 5 4 4 2 2 2 3 4 4 2 2 4 4 3 3 4 6 4 3 7 7 8 9 2 2 3 4 5 5 5 5 5 4 4 5
5 7 8 9 10 13 13 12 11 11 10 10 9 9 7 7 7 8 9 8 8 8 8 8 6 7 8 7 7 6 6 7 5 6 6 6 6 6 6 6 6 6 6 6 6 6 6 6 5 5 5 4 4 3 2 1 3 4 4 3 2 4 5 4 3 3 6 4 3 5 7 8 8 8 1 2 4 5 4 4 4 4 4 4 5
6 7 8 7 9 11 11 12 11 12 11 11 11 9 9 8 8 8 8 9 8 7 7 7 7 6 7 7 7 7 7 7 6 6 6 6 6 7 7 6 6 6 7 6 7 7 7 7 7 6 5 5 4 4 4 4 4 4 5 3 4 4 4 4 3 2 3 6 4 4 7 8 9 8 2 3 3 3 5 4 4 4 4 3 4
9 8 7 8 7 10 11 12 12 11 11 11 10 9 10 10 10 9 7 8 7 7 7 7 7 7 7 7 8 7 7 8 7 6 7 6 6 7 7 7 7 7 7 7 6 7 7 6 6 5 6 5 5 5 5 5 4 4 5 4 4 4 4 4 3 2 3 6 5 3 6 7 9 9 6 2 2 2 4 5 4 5 5 4 5
7 7 6 7 7 9 10 12 11 10 9 10 10 11 10 10 9 9 8 7 8 8 7 7 7 7 7 7 7 7 7 7 7 7 7 7 7 7 7 7 7 7 8 7 6 7 7 7 7 7 7 6 6 6 6 5 4 4 4 3 3 4 4 3 3 3 3 5 5 3 3 8 9 10 9 5 2 3 2 4 4 4 5 5 5
5 7 7 5 6 7 10 10 11 10 10 10 9 9 10 10 9 9 9 8 8 7 7 7 7 7 7 8 7 8 6 7 7 7 8 8 7 8 7 7 7 7 8 6 7 6 6 5 5 5 5 5 6 6 5 6 5 4 3 3 3 4 3 4 3 2 3 4 5 4 4 4 8 9 10 10 9 9 8 5 3 1 2 5 5
7 7 7 5 6 6 7 8 9 8 9 10 9 8 8 7 7 8 8 8 8 7 7 7 7 7 7 8 8 8 7 7 7 8 8 7 7 7 7 7 7 7 7 7 7 6 6 6 6 5 6 4 6 5 4 5 5 4 4 3 3 3 4 3 3 4 2 2 4 5 5 4 4 7 9 10 10 9 8 7 4 2 1 2 4
6 5 5 5 5 4 5 5 7 8 9 7 6 6 7 6 5 6 6 7 7 8 7 6 7 7 7 8 9 9 9 7 7 7 7 7 7 7 7 7 7 7 7 7 8 7 7 7 7 7 6 7 7 5 5 6 4 4 4 4 4 3 3 3 3 3 2 1 2 4 4 4 4 4 4 8 9 9 9 7 6 6 4 2 5
1 1 6 6 5 4 4 4 5 5 7 7 6 5 4 4 4 4 5 5 5 6 6 6 6 6 7 8 9 8 9 8 7 8 7 7 7 7 7 7 7 7 7 7 8 7 7 7 7 7 5 6 5 5 4 6 5 6 4 3 4 4 3 3 4 4 3 2 2 3 4 4 4 5 3 4 5 7 8 8 7 6 6 4 5
5 2 0 4 4 4 4 3 4 4 5 6 4 4 4 4 3 4 4 4 5 5 5 5 5 6 6 6 8 8 8 8 6 7 7 7 8 8 7 7 7 7 7 7 7 7 7 7 6 7 7 5 6 5 4 6 5 5 4 4 4 4 4 5 4 3 2 2 3 2 2 3 5 5 4 4 4 3 6 7 7 7 7 5 5
8 10 6 2 2 4 4 4 4 5 3 4 3 2 3 3 3 3 3 4 5 4 4 4 4 5 4 6 6 7 6 7 6 7 8 7 7 8 7 8 7 8 8 8 8 7 7 7 7 6 6 6 7 6 5 6 5 5 4 4 4 4 4 5 4 4 3 3 3 3 2 3 2 4 5 5 4 3 4 5 6 7 6 5 4
9 11 10 7 4 4 4 3 3 1 1 3 4 3 2 3 2 2 2 3 3 3 3 4 4 4 4 6 6 7 7 7 7 6 7 7 6 7 7 8 8 8 8 8 8 7 6 8 8 6 7 6 7 8 6 6 5 5 4 4 4 2 3 5 4 3 4 3 4 4 4 3 2 2 2 5 4 4 2 3 6 6 4 3 5
12 13 11 10 8 8 5 4 4 2 0 2 4 3 2 1 1 2 2 2 3 3 3 3 4 5 6 5 6 7 7 7 7 7 7 8 7 7 8 8 8 8 8 8 7 7 6 7 8 7 6 6 8 7 7 7 6 4 4 4 3 1 2 3 3 4 4 4 4 4 3 4 4 3 3 4 5 4 3 3 2 2 2 3 4
12 12 13 12 10 8 5 4 3 2 2 2 4 3 2 1 1 0 1 1 1 3 3 4 4 4 4 5 5 6 6 7 7 6 6 6 6 7 7 8 8 9 9 9 8 8 9 9 9 9 8 5 6 7 7 7 5 5 4 3 2 1 1 1 1 3 4 4 4 4 4 5 6 4 4 3 4 5 5 4 3 4 2 2 3
12 13 13 13 13 11 9 5 4 4 3 2 2 2 1 0 0 1 1 1 2 1 1 2 2 3 3 4 5 6 6 6 6 5 6 6 6 5 6 7 8 9 9 10 9 9 8 8 8 7 9 7 5 6 7 8 8 4 3 2 1 0 0 0 2 3 3 4 4 4 4 4 4 5 4 4 4 4 4 4 5 5 4 3 1
13 12 12 12 12 12 11 9 5 5 5 4 3 2 1 0 1 1 1 1 2 2 3 2 3 2 2 3 4 5 5 6 6 6 6 6 6 6 6 7 8 9 9 8 8 7 7 8 7 6 5 9 7 9 9 11 3 7 6 2 0 1 2 2 4 4 4 4 4 5 5 5 6 5 5 4 4 4 4 4 4 5 5 5 4
11 12 10 10 11 10 10 8 8 7 6 5 6 3 2 2 1 1 0 1 1 3 4 3 3 4 2 3 4 5 6 6 7 7 7 7 7 7 7 7 7 8 8 9 9 10 10 11 11 11 8 4 4 6 12 12 7 6 4 5 2 1 2 2 4 6 5 4 4 6 6 6 6 6 6 5 5 4 4 4 4 4 5 6 5
11 12 12 11 10 10 9 9 9 8 9 8 6 6 5 5 5 5 6 5 2 3 3 2 1 1 2 3 4 4 5 6 6 6 7 7 8 8 7 7 8 7 9 10 10 12 11 10 10 9 10 9 7 8 9 9 7 12 4 6 4 4 2 9 8 4 6 6 6 7 5 6 6 5 5 6 6 5 5 5 4 4 5 4 6
13 12 11 11 9 11 10 9 9 9 8 9 8 6 6 4 3 3 4 4 3 3 2 1 1 1 1 2 3 4 4 5 6 7 7 7 7 7 7 7 7 7 7 8 10 12 12 12 14 13 14 14 10 7 8 9 9 12 9 5 2 2 7 3 5 3 5 5 6 5 5 5 6 6 5 5 5 6 6 4 4 4 4 4 4
13 11 10 10 10 10 10 9 9 9 9 8 8 6 6 5 4 2 2 1 2 1 4 4 4 4 5 3 2 4 4 4 4 5 6 6 6 7 6 6 7 7 7 8 7 6 9 12 13 12 12 10 12 9 8 9 9 9 6 5 8 8 6 4 6 4 0 4 4 5 5 5 4 5 4 4 6 7 6 6 4 5 4 4 4
11 9 8 9 10 11 10 10 9 8 8 9 9 8 7 7 6 5 4 4 4 3 2 2 3 4 5 4 4 3 4 4 4 5 5 6 6 6 7 7 7 7 7 7 8 9 9 10 8 10 11 10 7 10 13 12 7 6 7 7 2 1 4 8 6 5 1 3 5 6 6 5 5 6 7 6 5 7 6 6 6 5 5 4 5
8 8 8 9 11 11 10 10 9 9 9 9 9 9 7 6 6 6 6 5 4 4 4 5 5 3 2 2 3 3 3 4 4 4 4 5 6 6 7 7 7 7 7 8 9 8 6 6 8 10 9 9 11 12 12 10 14 11 11 10 6 3 3 1 2 10 7 6 6 3 4 6 6 7 8 8 7 8 7 7 7 6 6 6 6
9 9 9 9 9 9 10 9 10 9 9 10 9 10 9 8 7 7 7 7 6 6 6 7 6 4 1 0 1 1 3 4 4 4 5 5 5 6 6 6 7 6 7 7 7 8 9 8 9 10 11 10 10 9 8 11 11 12 10 9 4 6 3 3 1 1 4 4 3 8 6 2 4 7 7 8 7 8 8 8 8 8 7 7 7
9 9 9 9 10 9 11 11 11 9 9 10 10 10 9 8 8 8 7 7 7 6 5 5 5 6 5 2 1 1 2 3 4 4 4 5 5 5 6 6 7 7 6 6 7 9 8 8 10 11 11 12 9 10 12 10 11 10 11 11 11 5 3 4 5 4 2 3 8 9 8 11 10 10 9 9 10 8 8 8 8 8 8 7 7
10 11 9 9 9 9 9 12 12 10 10 11 10 10 8 8 7 8 7 7 7 6 6 6 5 6 6 6 4 3 3 4 4 4 4 5 5 5 5 6 6 6 7 6 7 8 9 8 8 9 11 13 11 11 11 8 8 10 11 10 12 13 14 12 11 8 7 5 3 4 6 10 13 6 9 12 9 9 8 8 9 9 8 8 8
Wind_Direction
170 138 148 153 155 160 162 164 166 164 166 166 164 165 163 164 162 161 159 157 154 153 151 151 148 145 142 140 137 135 131 131 125 118 110 106 107 100 102 100 107 108 111 111 107 104 105 100 92 82 80 78 76 75 76 76 74 72 71 70 67 66 63 57 56 55 43 52 72 75 76 69 66 67 68 66 59 44 45 68 70 60 51 59 67
147 137 146 157 155 161 163 164 166 168 168 167 166 167 166 163 163 164 162 160 158 156 156 154 153 150 148 146 144 141 141 141 135 127 120 117 115 114 103 100 105 109 113 112 111 104 102 95 86 76 72 71 69 67 67 70 69 67 64 62 61 60 58 61 56 55 68 54 75 72 66 75 72 69 68 68 64 54 51 64 70 63 53 65 61
123 136 146 157 156 162 162 166 167 169 171 169 168 167 167 163 163 166 166 163 162 161 160 159 160 159 159 155 154 153 151 145 138 133 129 121 113 113 111 106 102 107 106 108 108 104 97 88 76 75 74 70 65 60 58 63 66 67 67 66 61 54 47 38 32 20 6 14 15 93 81 68 75 76 72 67 65 61 59 60 70 70 64 66 64
131 135 148 156 157 161 162 165 168 169 170 171 169 168 168 166 166 170 169 167 169 167 166 168 171 170 166 167 163 154 147 138 129 122 116 112 111 104 113 114 110 106 109 102 102 103 92 79 76 77 72 70 66 60 55 53 56 59 59 62 63 61 52 37 17 2 348 352 345 308 56 98 74 78 81 76 70 66 63 59 58 64 65 62 63
137 136 145 156 159 162 164 165 168 170 172 172 171 171 170 168 170 172 173 172 175 174 172 176 178 176 176 171 168 153 140 128 123 115 109 104 103 107 111 113 115 113 109 106 98 89 84 78 79 81 78 73 69 66 58 54 52 51 49 48 51 53 50 39 17 349 338 309 295 281 218 108 86 66 81 86 83 79 76 76 74 70 65 64 60
152 134 144 158 161 165 164 167 169 171 173 174 172 173 173 173 172 176 177 177 181 180 180 182 184 187 182 170 164 152 141 133 126 115 102 101 95 104 107 114 110 107 105 105 100 93 87 91 89 88 85 81 77 73 67 60 54 51 48 42 39 37 36 32 8 346 321 326 311 262 162 108 98 89 77 88 90 89 87 83 76 71 75 71 61
155 132 150 159 163 166 166 168 170 171 176 176 172 174 174 176 175 179 181 183 186 186 187 188 191 190 176 165 158 154 144 139 127 118 109 113 104 93 102 110 112 109 107 92 92 92 88 93 96 93 91 87 83 79 74 68 62 56 50 43 34 28 23 16 0 337 319 318 311 304 91 112 97 89 86 80 79 79 81 80 78 74 68 70 64
155 135 155 161 163 165 167 169 172 171 177 178 175 176 175 177 180 182 184 186 190 191 190 191 195 183 175 164 163 156 157 141 130 126 120 115 105 89 63 80 120 107 95 104 95 88 98 100 105 101 95 93 87 83 82 78 73 67 56 45 36 27 15 1 349 337 315 301 275 350 20 75 85 86 81 72 79 83 79 83 75 73 74 70 60
160 146 152 162 162 162 167 171 172 174 178 179 176 177 179 179 180 183 186 188 193 192 192 192 196 178 174 166 161 162 154 151 146 137 114 132 125 97 175 98 29 16 89 114 109 103 108 118 111 106 99 93 91 88 82 77 70 66 61 55 43 31 13 356 341 326 318 281 8 18 64 80 86 81 80 74 67 62 60 56 64 61 67 68 68
154 175 155 163 155 164 167 170 175 177 180 179 177 179 181 183 181 185 188 190 192 194 193 191 193 177 169 166 163 168 160 158 156 143 135 127 161 179 216 47 330 36 333 156 128 137 145 130 134 106 100 96 92 87 80 74 65 58 61 58 52 34 16 357 336 313 298 353 41 6 70 94 74 76 85 80 73 68 66 68 73 68 60 65 64
154 189 154 166 150 163 169 172 176 179 181 178 178 180 183 184 185 190 191 191 193 194 192 190 185 176 169 167 168 167 162 160 152 151 122 82 290 192 215 202 176 174 42 346 188 204 181 186 186 116 103 96 94 91 85 78 74 68 61 59 55 40 15 353 331 334 359 25 21 343 89 77 87 79 88 82 75 70 63 61 55 62 69 66 67
153 189 178 143 155 163 168 173 176 181 180 177 177 182 184 184 183 189 194 193 193 194 192 185 182 173 170 172 170 168 170 156 170 128 134 127 127 140 210 228 207 239 222 227 240 224 189 168 162 108 99 98 95 91 89 80 74 71 64 61 55 41 14 349 2 18 11 15 358 35 85 82 74 95 88 82 79 69 58 58 65 61 55 63 60
158 187 137 119 154 165 168 171 176 182 183 180 177 182 184 185 182 189 191 194 193 193 187 181 177 175 177 176 174 179 176 183 155 138 144 148 151 181 216 200 226 219 232 223 216 205 185 174 158 108 103 99 95 91 85 82 76 71 68 62 52 35 6 358 30 25 21 8 4 28 56 57 46 83 89 86 77 71 62 57 55 52 53 53 53
157 181 124 137 145 165 168 171 174 180 187 181 180 180 184 186 187 188 188 191 187 190 179 176 179 180 181 180 178 181 191 149 149 155 155 154 167 188 215 225 213 214 223 213 208 194 184 185 142 110 104 99 96 93 91 89 83 74 65 56 41 20 6 343 32 30 11 6 36 53 46 45 56 69 81 80 73 69 61 55 53 57 52 52 54
162 174 150 130 140 167 170 170 176 180 185 184 185 185 182 185 186 186 184 184 183 177 176 179 186 189 180 185 185 185 155 157 165 169 154 156 162 195 227 210 203 206 205 207 199 181 177 181 135 116 107 104 102 99 96 89 84 75 66 53 38 18 8 340 24 31 16 9 57 66 54 30 61 60 62 67 74 65 57 51 53 54 53 55 54
158 167 157 129 150 160 170 173 176 182 188 185 186 187 183 184 185 185 182 183 182 177 179 182 190 178 181 187 186 185 164 171 187 156 154 155 161 177 206 206 202 198 198 198 194 183 183 173 129 118 117 115 114 107 99 92 86 77 65 52 34 17 357 359 353 41 29 10 35 63 46 27 51 63 61 61 61 70 61 57 54 57 62 59 55
158 166 169 148 150 158 172 176 178 183 189 186 188 188 185 183 183 184 182 183 186 180 175 181 184 181 180 185 191 189 182 181 151 148 149 155 162 174 195 201 203 194 195 190 191 186 178 156 130 129 131 126 120 114 108 97 89 83 73 61 41 11 359 1 52 52 39 19 55 54 40 9 46 66 78 78 78 64 68 66 65 58 61 61 62
176 166 181 166 155 157 174 176 174 179 184 188 186 187 186 183 183 184 183 183 188 184 180 178 182 181 177 170 169 154 157 163 150 155 156 150 161 177 193 201 197 197 191 195 180 181 180 153 138 139 136 130 122 115 107 101 93 85 79 70 51 15 3 3 61 51 18 44 65 51 30 356 70 68 68 78 80 86 76 75 72 69 69 69 75
183 172 187 174 178 161 169 174 177 178 183 187 185 188 186 185 184 185 184 185 189 188 185 179 179 181 172 170 154 143 146 148 155 147 142 134 133 153 195 196 196 192 190 191 184 184 174 151 146 145 138 132 124 114 107 99 93 87 83 73 38 11 357 18 28 26 32 47 59 44 10 2 111 83 77 81 84 87 86 83 88 87 77 80 91
209 180 198 191 179 181 166 174 175 178 182 181 186 184 190 188 189 188 188 189 189 188 185 183 178 172 165 151 139 130 127 125 129 131 132 134 135 137 168 197 197 194 190 188 187 182 177 153 152 147 138 131 120 107 101 98 90 83 75 41 14 355 358 32 10 46 65 63 57 33 356 8 113 104 86 80 82 87 91 98 99 90 84 82 81
207 204 197 195 192 188 183 172 177 180 182 182 183 186 187 190 192 192 192 193 190 187 185 176 167 161 149 145 139 135 133 125 131 131 133 135 141 154 167 195 200 195 186 191 187 184 176 159 154 147 139 122 104 95 90 91 86 84 60 359 3 352 21 15 30 47 59 62 52 15 10 12 57 100 99 88 89 86 97 96 82 84 85 84 82
190 202 206 199 192 199 193 180 176 180 182 185 183 182 180 183 187 186 192 194 191 185 178 168 165 157 150 149 151 147 146 140 152 139 146 141 147 159 175 183 202 176 173 185 186 187 175 162 156 150 133 116 106 81 59 60 75 76 347 345 333 30 13 22 48 43 59 71 51 10 13 24 69 94 110 112 103 104 108 104 91 89 88 78 77
194 192 203 203 194 195 192 194 184 182 184 187 185 182 172 181 190 187 186 188 185 181 178 174 171 156 160 164 162 161 160 159 158 159 150 153 151 163 176 177 188 149 153 169 183 186 174 163 160 145 135 137 139 126 124 120 102 293 299 310 5 58 32 28 60 65 51 64 47 11 9 36 68 120 119 125 124 129 114 104 104 106 101 100 97
197 189 195 195 189 194 199 198 196 183 183 188 186 182 165 179 187 187 182 182 182 185 185 179 178 162 167 171 173 169 172 164 158 159 150 160 155 163 174 171 163 141 141 144 170 176 168 162 150 140 135 163 188 141 145 167 190 223 245 216 85 115 60 65 84 94 77 58 30 14 13 20 80 153 136 132 134 139 133 124 118 109 105 110 105
194 177 169 185 191 193 193 198 197 191 184 184 186 189 164 173 184 186 183 180 181 184 192 186 182 177 169 173 181 172 168 164 148 151 151 149 142 157 163 155 141 143 140 143 146 153 135 116 122 124 158 195 221 159 156 181 198 212 195 129 136 143 88 69 82 112 98 77 32 22 13 7 2 154 152 136 140 145 129 123 111 102 98 99 107
171 166 183 180 188 192 190 193 193 193 187 187 190 188 181 168 180 185 182 181 184 183 189 192 187 185 173 177 175 176 168 167 149 160 160 155 151 160 165 157 149 154 154 150 151 148 145 141 143 165 196 204 202 173 178 181 194 172 114 130 161 143 122 113 96 96 107 94 39 30 19 4 8 86 139 157 143 154 145 140 108 105 109 114 108
173 188 173 181 185 188 190 185 191 191 192 190 186 182 193 180 171 180 189 194 185 188 190 194 189 183 181 174 174 179 170 173 157 165 169 161 159 164 169 167 161 158 172 153 163 162 163 157 158 184 212 186 183 135 91 96 115 112 113 101 111 120 118 113 98 100 109 107 67 34 21 11 13 16 149 155 159 152 154 141 132 123 111 113 108
181 185 182 182 179 189 189 184 188 188 190 188 189 189 191 187 183 183 193 198 186 186 184 189 188 185 184 177 171 173 169 173 168 167 175 164 167 166 169 173 166 164 176 166 164 164 174 163 166 192 196 152 134 133 133 113 104 114 121 125 116 101 102 99 94 104 128 123 89 30 25 17 13 8 141 154 157 165 149 156 132 140 145 141 131
203 199 191 180 184 186 187 189 188 191 189 186 192 191 190 191 192 194 195 191 192 183 176 175 184 185 184 175 170 173 172 174 169 171 166 177 170 167 171 179 169 167 171 192 168 167 177 166 172 185 156 142 144 163 161 162 159 140 130 144 116 106 104 103 90 79 102 118 104 49 34 24 18 13 23 153 154 175 189 170 168 151 138 168 146
215 207 183 194 183 179 185 190 191 192 189 188 193 188 190 190 194 196 190 184 189 178 173 174 181 178 182 180 177 174 176 176 166 167 171 186 176 171 170 179 176 167 169 191 174 160 171 165 168 162 153 156 162 183 152 167 140 128 130 134 130 140 125 123 143 138 103 114 112 85 45 31 25 22 34 98 148 171 174 169 166 172 161 158 157
212 217 202 194 190 174 186 188 191 188 188 193 192 194 188 193 189 189 190 187 182 177 174 172 176 179 180 181 177 177 169 171 165 170 174 183 182 174 176 173 172 172 170 177 164 161 167 169 167 164 166 164 174 171 151 141 127 104 123 122 125 103 108 116 93 99 100 107 119 110 71 47 37 30 33 68 93 155 110 170 179 190 175 178 172
209 224 216 195 185 186 186 189 188 186 188 196 193 195 195 192 186 184 191 188 176 178 175 171 176 177 177 178 174 179 171 175 169 174 176 182 183 176 172 169 175 166 167 162 163 165 168 167 161 162 164 158 157 164 152 139 137 138 118 111 103 111 114 112 107 76 89 106 120 128 112 77 52 45 36 48 67 63 60 63 59 358 209 190 183
221 213 214 197 188 191 179 191 188 185 191 193 196 199 198 194 187 188 188 181 179 177 178 177 174 175 175 174 177 179 179 177 179 177 176 180 178 171 172 172 168 162 163 159 159 164 158 155 165 155 160 146 141 167 148 142 134 138 131 147 112 107 119 114 109 88 89 111 141 141 131 111 87 56 46 42 50 71 67 61 60 63 307 188 144
210 206 189 200 200 178 174 172 185 185 193 195 190 195 200 199 195 193 190 181 180 183 185 178 172 173 171 174 178 178 182 180 174 177 173 176 177 174 173 172 167 162 160 156 163 165 157 154 165 152 164 148 152 163 144 136 135 137 136 150 124 137 120 113 130 134 142 146 133 129 144 140 122 96 71 52 47 61 73 77 79 67 51 113 131
61 154 176 198 182 165 158 165 174 186 182 193 187 186 191 198 200 192 187 187 184 187 185 180 179 174 171 179 181 178 181 183 176 172 179 174 175 174 176 177 165 158 159 166 160 164 155 160 157 154 156 145 149 161 152 148 143 144 146 149 134 135 120 126 114 135 154 187 116 140 148 164 140 136 111 93 57 49 67 78 78 81 80 95 124
350 354 78 165 160 143 142 137 151 181 174 190 182 169 178 189 186 187 178 176 175 183 179 183 179 175 175 178 185 183 184 187 178 170 177 180 177 175 178 168 164 159 160 162 161 168 162 157 169 154 156 167 151 168 162 144 141 141 150 148 134 131 140 127 131 150 176 133 137 140 147 135 142 153 154 118 102 65 78 81 82 76 77 91 116
8 4 19 73 120 114 124 126 146 186 173 169 169 159 150 169 170 169 166 154 166 172 168 167 171 179 170 170 180 184 187 189 183 176 177 184 179 174 175 172 163 161 161 169 172 174 161 160 172 173 165 162 160 164 165 145 140 141 136 123 143 147 145 149 157 172 161 162 165 173 114 88 92 139 126 134 125 109 86 96 89 75 58 83 107
13 14 10 35 47 73 121 106 93 129 154 142 158 160 145 132 151 146 149 149 171 157 160 162 181 174 175 177 172 183 188 189 186 181 181 188 183 175 172 169 164 163 165 170 180 175 167 159 167 180 171 157 162 164 165 145 136 130 118 121 137 136 160 147 161 152 162 176 167 164 151 135 140 206 132 144 143 138 127 115 110 90 51 74 122
18 13 13 18 27 33 66 63 58 67 67 102 129 133 116 105 110 121 154 157 146 166 165 177 183 175 187 175 170 181 188 191 191 184 183 186 186 182 176 173 165 166 164 170 177 176 167 164 164 177 176 172 163 168 158 142 134 126 124 139 129 124 135 133 140 155 187 188 176 182 146 162 175 198 157 142 152 148 154 164 132 106 75 50 116
24 18 19 19 18 20 50 70 48 49 57 51 72 71 75 97 142 350 101 177 152 170 188 190 187 190 185 173 167 174 181 190 196 195 190 188 188 189 180 171 171 165 168 172 181 177 175 170 175 171 172 168 159 155 137 127 102 103 111 78 76 82 40 94 144 193 210 187 183 167 163 181 168 182 164 179 145 158 166 184 180 157 134 100 97
28 24 26 24 18 17 20 34 63 38 62 58 63 90 101 46 6 135 201 168 205 181 200 236 204 202 177 176 161 171 175 185 195 188 196 194 197 193 179 181 172 172 175 184 180 182 181 176 168 172 167 163 170 155 146 129 124 78 62 91 73 62 155 348 266 252 227 197 168 168 191 171 179 176 185 167 155 158 170 179 170 155 158 144 118
25 25 29 29 24 20 17 8 23 42 32 47 70 70 79 149 143 205 185 202 178 187 230 227 226 219 169 161 158 171 168 181 186 192 193 191 197 197 190 187 180 182 182 173 178 179 173 174 160 169 193 171 176 165 162 125 166 167 149 179 336 294 232 215 250 254 237 209 181 182 201 191 187 184 185 161 162 167 183 194 185 162 163 165 170
23 26 24 34 31 25 18 12 13 26 29 29 34 41 28 11 59 355 120 252 190 169 185 195 187 209 197 169 164 168 167 178 186 189 189 196 197 194 198 187 191 181 172 180 180 182 184 182 176 175 177 195 164 179 172 177 157 139 125 94 235 128 308 296 259 230 218 219 199 197 202 194 193 182 180 161 168 180 193 196 191 172 166 170 173
22 21 21 26 26 26 21 18 18 22 24 15 28 19 14 22 30 46 32 51 63 3 42 40 56 124 221 198 183 167 174 184 186 187 193 196 196 198 193 187 197 192 188 186 187 190 186 186 183 183 169 173 188 197 192 183 146 140 168 194 189 140 287 251 216 233 197 206 205 209 199 196 190 184 167 174 180 182 199 194 189 180 178 175 166
22 20 17 18 23 24 20 21 23 24 12 14 15 23 11 14 28 29 31 4 3 21 34 334 312 225 230 214 215 170 180 184 184 192 194 198 201 201 198 195 192 198 197 199 198 197 191 189 188 185 185 183 187 181 204 196 193 193 147 123 116 210 216 211 143 260 182 204 221 209 211 191 189 187 181 190 182 185 187 187 189 185 184 181 172
23 12 10 15 24 26 23 23 28 22 10 5 8 16 17 13 12 30 7 344 294 273 250 242 235 218 213 210 196 191 190 191 191 193 198 200 205 206 205 195 197 197 201 206 207 202 201 199 198 191 193 198 185 171 187 221 210 213 217 195 151 174 177 183 125 233 81 220 207 216 208 205 187 192 200 198 188 186 181 184 188 195 194 187 182
22 7 1 12 27 31 27 25 28 21 10 5 6 16 15 19 12 6 10 351 349 303 316 294 242 229 192 197 204 205 202 197 212 195 200 205 207 210 212 209 200 200 201 205 208 208 209 208 199 200 201 195 171 184 191 197 213 253 240 241 184 155 148 133 198 99 207 273 218 208 225 212 192 191 204 214 196 176 185 177 189 194 196 191 189
21 8 5 9 22 30 31 29 29 22 14 9 10 14 19 13 9 4 3 359 356 328 328 327 337 22 60 186 175 198 208 208 215 221 210 207 211 216 216 218 213 206 199 209 211 212 210 211 207 209 207 203 197 195 193 185 188 209 217 229 231 180 190 207 168 168 157 159 228 238 231 209 204 207 200 206 201 189 181 186 185 188 192 197 190
26 19 11 6 11 20 32 36 36 28 15 15 17 15 20 13 15 14 8 350 354 343 345 344 341 350 11 354 159 206 191 216 219 224 227 218 214 218 219 222 222 220 207 212 215 212 210 202 204 206 208 209 210 207 188 197 197 204 194 226 214 215 225 234 200 154 138 132 205 187 206 206 222 229 215 204 205 194 187 185 186 183 189 194 191
29 21 14 12 11 11 25 33 32 27 17 19 22 23 22 20 15 10 6 349 349 343 350 345 345 343 345 313 225 209 200 206 231 235 236 234 226 224 225 227 230 229 221 215 215 218 218 212 208 209 211 214 212 210 209 200 203 204 201 195 197 180 203 259 256 222 233 173 167 194 187 175 197 227 200 208 204 195 187 182 183 187 187 190 192
25 20 14 13 9 11 15 31 30 25 19 18 21 25 22 21 18 9 5 360 352 349 354 349 350 352 348 338 320 250 220 206 209 227 231 239 242 233 230 234 236 236 233 229 224 221 223 219 212 210 211 213 213 216 221 216 199 205 206 199 203 192 194 195 203 203 186 179 113 186 186 194 199 202 218 207 198 197 189 182 186 190 185 188 191